OpenBCM V1.08-5-g2f4a (Linux)

Packet Radio Mailbox

IZ3LSV

[San Dona' di P. JN]

 Login: GUEST





  
CX2SA  > SATDIG   31.07.09 00:55l 277 Lines 7762 Bytes #999 (0) @ WW
BID : 55744-CX2SA
Read: GUEST
Subj: AMSAT-BB-digest V4 367
Path: IZ3LSV<IK2XDE<DB0RES<DK0WUE<SP7MGD<CX2SA
Sent: 090730/2244Z @:CX2SA.LAV.URY.SA #:55744 [Minas] FBB7.00e $:55744-CX2SA
From: CX2SA@CX2SA.LAV.URY.SA
To  : SATDIG@WW


Send AMSAT-BB mailing list submissions to
	amsat-bb@xxxxx.xxx

To subscribe or unsubscribe via the World Wide Web, visit
	http://amsat.org/mailman/listinfo/amsat-bb
or, via email, send a message with subject or body 'help' to
	amsat-bb-request@xxxxx.xxx

You can reach the person managing the list at
	amsat-bb-owner@xxxxx.xxx

When replying, please edit your Subject line so it is more specific
than "Re: Contents of AMSAT-BB digest..."


Today's Topics:

1.  ANDE -3h deploy elements (Ivan Galysh)
2.  Aggiesat heared ! (Henk, PA3GUO)
3.  ANDE released (Ivan Galysh)
4. Re: ANDE released (Nigel Gunn G8IFF/W8IFF)
5. Re: ANDE released (Mike Rupprecht)
6.  ANDE heard (Ivan Galysh)
7.  ANDE-2 satellites heared (17:44utc) (Henk, PA3GUO)


----------------------------------------------------------------------

Message: 1
Date: Thu, 30 Jul 2009 12:33:01 -0400
From: Ivan Galysh <igalysh@xxx.xxx>
Subject: [amsat-bb]  ANDE -3h deploy elements
To: amsat-bb@xxxxx.xxx
Message-ID: <4A71CB3D.7040003@xxx.xxx>
Content-Type: text/plain; charset=ISO-8859-1; format=flowed

1 99999U          09211.72373843 -.02622722  00000-0 -14293-1 0 00003
2 99999 051.6372 083.2754 0005819 029.8235 006.8153 15.79273176000058

------------------------------------------------------------------------

1 99999U          09211.72373843  .00571633  00000-0  30100-2 0 00009
2 99999 051.6372 083.2754 0003023 027.2381 009.4075 15.79914706000027

------------------------------------------------------------------------

1 99999U          09211.72373843  .00636106  00000-0  34351-2 0 00008
2 99999 051.6372 083.2754 0005463 031.4523 005.1966 15.79342597000027

------------------------------------------------------------------------

1 99999U          09211.72373843  .00545186  00000-0  29083-2 0 00001
2 99999 051.6372 083.2754 0004209 029.9409 006.7016 15.79624738000022

------------------------------------------------------------------------

1 99999U          09211.72373843  .00573006  00000-0  30024-2 0 00000
2 99999 051.6372 083.2754 0002560 025.5846 011.0602 15.80024865000024

------------------------------------------------------------------------

1 99999U          09211.72373843  .00564650  00000-0  29889-2 0 00002
2 99999 051.6372 083.2754 0003500 028.5748 008.0691 15.79797847000022

Ivan

------------------------------------------------------------------------



------------------------------

Message: 2
Date: Thu, 30 Jul 2009 18:40:24 +0200 (CEST)
From: "Henk, PA3GUO" <hamoen@xxx.xx>
Subject: [amsat-bb]  Aggiesat heared !
To: <amsat-bb@xxxxx.xxx>
Cc: pa3guo@xxxxx.xxx
Message-ID: <50680.212.61.83.38.1248972024.squirrel@xxxxxxx.xxx.xx>
Content-Type: text/plain; charset=iso-8859-1

Think I did pick up Aggiesat:

Very pass, 1433 UTC (manual tuning):
http://www.pa3guo.com/aggiesat_30jul2009_1433utc_436.250cw.mp3

Next pass, 1600 UTC (manual tuning):
http://www.pa3guo.com/aggiesat_30jul2009_1600utc_436.255cw.mp3

Burst of 5 seconds, within a period of 20 second.

My estimate is that the center frequency is around 436.255 MHz
First signals heared 436.262, last signals 436.248.
Shuttle keps used.

Henk, PA3GUO




------------------------------

Message: 3
Date: Thu, 30 Jul 2009 13:26:55 -0400
From: Ivan Galysh <ivan.galysh@xxx.xxxx.xxx>
Subject: [amsat-bb]  ANDE released
To: amsat-bb@xxxxx.xxx
Message-ID: <4A71D7DF.5040505@xxx.xxxx.xxx>
Content-Type: text/plain; charset=ISO-8859-1; format=flowed

Anyone who hears any of the satellites, let me know and send me any
telemetry.


Ivan



------------------------------

Message: 4
Date: Thu, 30 Jul 2009 17:29:16 +0000
From: Nigel Gunn G8IFF/W8IFF <nigel@xxxxx.xxx>
Subject: [amsat-bb] Re: ANDE released
To: Ivan Galysh <ivan.galysh@xxx.xxxx.xxx>
Cc: amsat-bb@xxxxx.xxx
Message-ID: <4A71D86C.7050705@xxxxx.xxx>
Content-Type: text/plain; charset=UTF-8; format=flowed

Just heard a burst but no TNC connected.

Ivan Galysh wrote:
> Anyone who hears any of the satellites, let me know and send me any
> telemetry.
>


------------------------------

Message: 5
Date: Thu, 30 Jul 2009 19:57:03 +0200
From: "Mike Rupprecht" <mail@xxxxxxxxxxxxxx.xx>
Subject: [amsat-bb] Re: ANDE released
To: "'Ivan Galysh'" <ivan.galysh@xxx.xxxx.xxx>, <amsat-bb@xxxxx.xxx>
Message-ID: <000101ca113f$25799fa0$706cdee0$@xx>
Content-Type: text/plain;	charset="iso-8859-1"

Hi Ivan,

here are my first frames from Pollux

POLLUX-1/TELEM>CQ>UI,?,F0 (1199 baud):
MEMS 1188 -2.996 -1.09 -1.887 0.553 -0.227 3.889 -0.50 13.71 11.57 5.31 5.27
4.82 2.60 28 16 20


POLLUX-1/TELEM>CQ>UI,?,F0 (1199 baud):
MEMS 1254 2.59 2.58 2.44 -2.881 -0.993 -1.887 0.223 -0.01 4.338 -2.81 15.88
6.23 5.49 5.35 4.99 2.60 13 28 12

I will investigate the audio file and try get more ...

73, Mike
DK3WN



-----Urspr?ngliche Nachricht-----
Von: amsat-bb-bounces@xxxxx.xxx [mailto:amsat-bb-bounces@xxxxx.xxxx Im
Auftrag von Ivan Galysh
Gesendet: Donnerstag, 30. Juli 2009 19:27
An: amsat-bb@xxxxx.xxx
Betreff: [amsat-bb] ANDE released

Anyone who hears any of the satellites, let me know and send me any
telemetry.


Ivan

_______________________________________________
Sent via AMSAT-BB@xxxxx.xxx. Opinions expressed are those of the author.
Not an AMSAT-NA member? Join now to support the amateur satellite program!
Subscription settings: http://amsat.org/mailman/listinfo/amsat-bb




------------------------------

Message: 6
Date: Thu, 30 Jul 2009 13:59:21 -0400
From: Ivan Galysh <ivan.galysh@xxx.xxxx.xxx>
Subject: [amsat-bb]  ANDE heard
To: amsat-bb@xxxxx.xxx
Message-ID: <4A71DF79.8000709@xxx.xxxx.xxx>
Content-Type: text/plain; charset=ISO-8859-1; format=flowed

Hello all,

Thanks to Henk for capturing data from Pollux. He heard Castor/KD4HBO-1
but not decode.

Current surface temperature is ranging from 6 to 9C. Interior
temperature is ranging from -3 to -1C. It looks like all high school
MEMS experiment payloads are functioning. Some of the data doesn't look
right but that is part of the experiment. When I get a chance, I'll send
out the MEMS telemetry format and info on the MEMS devices.

This was collected from Henk, PA3GUO.

POLLUX-1>TELEM>CQ:MEMS 990 2.59 2.57 2.45 -3.112 -1.556 -2.118 0.226
-0.779 -2.559 -5.35 -27.74 17.44 4.86 4.73 4.40 2.60 7 49 10
POLLUX-1>TELEM>CQ:SYST 1023 0 0 33 0 002d 06e8 017f 06a8 0145 0670 ffff
09a0 0022 06c0 ffff ffff 0158 08cc 0fc4 0036

Ivan



------------------------------

Message: 7
Date: Thu, 30 Jul 2009 20:11:34 +0200 (CEST)
From: "Henk, PA3GUO" <hamoen@xxx.xx>
Subject: [amsat-bb]  ANDE-2 satellites heared (17:44utc)
To: <amsat-bb@xxxxx.xxx>
Cc: pa3guo@xxxxx.xxx
Message-ID: <2394.212.61.83.38.1248977494.squirrel@xxxxxxx.xxx.xx>
Content-Type: text/plain; charset=iso-8859-1

Congratulations to Ivan and his team !

!S 17:40:19 !POLLUX-1>TELEM>CQ:MEMS 990 2.59 2.57 2.45 -3.112 -1.556 -2.118
0.226 -0.779 -2.559 -5.35 -27.74 17.44
4.86 4.73 4.40 2.60 7 49 10
!S 17:40:46 !POLLUX-1>TELEM>CQ:SYST 1023 0 0 33 0 002d 06e8 017f 06a8 0145
0670 ffff 09a0 0022 06c0 ffff ffff 0158
08cc 0fc4 0036

During the 16 degrees elevation pass I did hear much more packets.
My TNC only decoded 2 (see above).
Also from Coastor I think, as they were close to Pollux.
Seems Castor is less loud (RF wise).
Frequency 145.825.
2x6 elements beam, no pre-amp.
TNC: PK96, 1200 baud.
Radio: Kenwood TS2000X.

Perfect deployment from the Shuttle, and immediately the sats work !

Henk, PA3GUO










------------------------------

_______________________________________________
Sent via amsat-bb@xxxxx.xxx. Opinions expressed are those of the author.
Not an AMSAT member? Join now to support the amateur satellite program!
http://amsat.org/mailman/listinfo/amsat-bb


End of AMSAT-BB Digest, Vol 4, Issue 367
****************************************


Read previous mail | Read next mail


 05.04.2026 23:40:52lGo back Go up